Cherry Point, NC

10:28 AM EDT on September 22, 2017 (GMT -0400)
Cherry Point Marine Corps Air Station

Weather History for KNKT - December, 2013

Change the Weather History Date:

Friday, December 20, 2013

  Actual Average Record
Temperature  
Mean Temperature 54 °F -  
Max Temperature 69 °F 54 °F 71 °F (2008)
Min Temperature 39 °F 34 °F 17 °F (2004)
Degree Days  
Heating Degree Days 11    
Growing Degree Days 4 (Base 50)    
Moisture  
Dew Point 48 °F    
Average Humidity 83    
Maximum Humidity 93    
Minimum Humidity 58    
Precipitation  
Precipitation 0.00 in - - ()
Sea Level Pressure  
Sea Level Pressure 30.24 in    
Wind  
Wind Speed 2 mph (South)    
Max Wind Speed 9 mph    
Max Gust Speed 16 mph    
Visibility 9 miles    
Events Fog    
Averages and records for this station are not official NWS values.
T = Trace of Precipitation, MM = Missing Value Source: NWS Daily Summary

Daily Weather History Graph

Daily Weather History Graph

Search for Another Location

Airport or City:

Trip Planner

Search our weather history database for the weather conditions in past years. The results will help you decide how hot, cold, wet, or windy it might be!

Date:

Astronomy

Dec. 20, 2013 Rise Set
Actual Time 7:10 AM EST 4:59 PM EST
Civil Twilight 6:42 AM EST 5:27 PM EST
Nautical Twilight 6:11 AM EST 5:59 PM EST
Astronomical Twilight 5:40 AM EST 6:30 PM EST
Moon 8:11 PM EST (12/20) 9:09 AM EST (12/20)
Length of Visible Light 10h 44m
Length of Day
9h 48m
Waning Gibbous, 90% of the Moon is Illuminated
Dec 20
Waning Gibbous
Dec 25
Last Quarter
Jan 1
New
Jan 7
First Quarter
Jan 15
Full

Hourly Weather History & Observations

Time (EST) Temp. Windchill Dew Point Humidity Pressure Visibility Wind Dir Wind Speed Gust Speed Precip Events Conditions
12:54 AM 39.9 °F - 37.0 °F 89% 30.27 in 10.0 mi Calm Calm - N/A   Clear
1:54 AM 41.0 °F 39.0 °F 37.0 °F 86% 30.26 in 7.0 mi WSW 3.5 mph - N/A   Clear
2:54 AM 41.0 °F - 37.0 °F 86% 30.27 in - Calm Calm - N/A   Clear
3:54 AM 39.9 °F - 37.0 °F 89% 30.26 in - Calm Calm - N/A   Clear
4:54 AM 42.1 °F - 37.9 °F 85% 30.25 in 10.0 mi Calm Calm - N/A   Clear
5:17 AM 42.1 °F - 37.9 °F 85% 30.27 in 10.0 mi Calm Calm - N/A   Partly Cloudy
5:39 AM 42.1 °F - 37.9 °F 85% 30.27 in 10.0 mi Calm Calm - N/A   Mostly Cloudy
5:54 AM 41.0 °F - 37.9 °F 89% 30.26 in 10.0 mi Calm Calm - N/A   Scattered Clouds
6:54 AM 39.9 °F - 37.0 °F 89% 30.28 in 10.0 mi Calm Calm - N/A   Scattered Clouds
7:19 AM 39.9 °F - 37.0 °F 89% 30.29 in - Calm Calm - N/A   Mostly Cloudy
7:32 AM 41.0 °F - 37.0 °F 86% 30.30 in 7.0 mi Calm Calm - N/A Fog Patches of Fog
7:54 AM 42.1 °F - 39.9 °F 92% 30.29 in 7.0 mi Calm Calm - N/A Fog Patches of Fog
8:54 AM 50.0 °F - 46.9 °F 89% 30.28 in 7.0 mi ESE 3.5 mph - N/A   Mostly Cloudy
9:54 AM 61.0 °F - 53.1 °F 75% 30.28 in 10.0 mi SSE 5.8 mph - N/A   Mostly Cloudy
10:54 AM 66.0 °F - 55.0 °F 68% 30.27 in 10.0 mi SSE 5.8 mph - N/A   Mostly Cloudy
11:54 AM 68.0 °F - 55.0 °F 63% 30.24 in 10.0 mi South 5.8 mph - N/A   Overcast
12:54 PM 69.1 °F - 54.0 °F 58% 30.21 in 10.0 mi SSW 9.2 mph - N/A   Overcast
1:54 PM 66.9 °F - 57.0 °F 70% 30.19 in 10.0 mi SSW 3.5 mph - N/A   Overcast
2:54 PM 69.1 °F - 57.9 °F 68% 30.17 in 10.0 mi South 4.6 mph - N/A   Mostly Cloudy
3:54 PM 69.1 °F - 57.9 °F 68% 30.17 in 10.0 mi South 9.2 mph 16.1 mph N/A   Clear
4:54 PM 66.0 °F - 59.0 °F 78% 30.19 in 10.0 mi SSW 5.8 mph - N/A   Partly Cloudy
5:54 PM 63.0 °F - 57.9 °F 84% 30.21 in 10.0 mi SSW 5.8 mph - N/A   Partly Cloudy
6:54 PM 61.0 °F - 57.9 °F 90% 30.21 in 10.0 mi South 5.8 mph - N/A   Partly Cloudy
7:54 PM 60.1 °F - 57.0 °F 90% 30.20 in 10.0 mi South 4.6 mph - N/A   Clear
8:54 PM 60.1 °F - 57.0 °F 90% 30.20 in 10.0 mi South 9.2 mph - N/A   Clear
9:54 PM 60.1 °F - 55.9 °F 86% 30.20 in 10.0 mi South 5.8 mph - N/A   Clear
10:54 PM 55.0 °F - 53.1 °F 93% 30.21 in 7.0 mi Calm Calm - N/A   Mostly Cloudy
11:54 PM 55.0 °F - 53.1 °F 93% 30.20 in 5.0 mi South 4.6 mph - N/A   Partly Cloudy